Regional Weather Roundup
Issued by NWS Jackson, KY

Home | Current Version | Previous Version | Text Only | Print | Product List | Glossary Off
Versions: 1 2 3 4 5 6 7 8 9 10 11 12 13 14 15 16 17 18 19 20 21 22 23 24 25 26 27 28 29 30 31 32 33 34 35 36 37 38 39 40 41 42 43 44 45 46 47 48 49

000
ASUS43 KJKL 010510
RWRJKL

EAST KENTUCKY HOURLY WEATHER ROUNDUP
NATIONAL WEATHER SERVICE JACKSON KY
1200 AM EST SUN MAR 01 2015

NOTE: "FAIR" INDICATES FEW OR NO CLOUDS BELOW 12,000 FEET WITH
NO SIGNIFICANT WEATHER AND/OR OBSTRUCTIONS TO VISIBILITY.

* THESE REPORTS ARE NOT UNDER NWS QUALITY CONTROL AND MAY NOT
  REPORT WEATHER SUCH AS PRECIPITATION AND FOG.

KYZ079-080-083-085-087-088-110-112-115-119-120-010600
...EASTERN KENTUCKY...

CITY           SKY/WX    TMP DP  RH WIND       PRES   REMARKS
JACKSON        CLOUDY    36  17  46 CALM      30.42F
LONDON         MOCLDY    34  22  61 CALM      30.42F
SOMERSET*      CLOUDY    34  25  69 CALM      30.43F
MONTICELLO*    CLOUDY    35  29  79 CALM      30.44F
MIDDLESBORO*   CLOUDY    32  29  89 CALM      30.46F
HAZARD APT*    MOCLDY    36  21  55 CALM      30.42F
BLACK MTN*       N/A     32  23  69 N5          N/A  WCI  27
PIKEVILLE APT* MOCLDY    36  21  55 SE5       30.42F WCI  32
BIG SANDY*     CLOUDY    34  21  59 CALM      30.43F
MOREHEAD APT*  CLOUDY    34  14  44 VRB5      30.46F WCI  30
$$

KYZ035-036-041-042-044-050-067-078-099-010600
...CENTRAL KENTUCKY...

CITY           SKY/WX    TMP DP  RH WIND       PRES   REMARKS
MT STERLING*   CLOUDY    34  21  60 E5        30.44F WCI  30
FLEMING/MASON* CLOUDY    30  16  55 NE7       30.47F WCI  23
DANVILLE*      CLOUDY    32  25  74 CALM      30.43S
RICHMOND*      CLOUDY    36  21  55 CALM      30.42F
LEXINGTON      MIX PCPN  32  22  66 N7        30.45F WCI  26
FRANKFORT        N/A     32  15  49 N5        30.46S WCI  27
$$

KYZ091>093-OHZ055-061-077-WVZ005-015-034-035-042-010600
...SOUTHERN OHIO/WEST VIRGINIA...

CITY           SKY/WX    TMP DP  RH WIND       PRES   REMARKS
COVINGTON      LGT SNOW  25  18  74 E5        30.49F WCI  19
COLUMBUS       LGT SNOW  21  18  86 CALM      30.52F VSB 1
DAYTON         LGT SNOW  21  18  88 E7        30.49F FOG     WCI  12
WILMINGTON     CLOUDY    23  12  62 N7        30.49S WCI  15
HUNTINGTON     CLOUDY    31  15  52 N3        30.46F
CHARLESTON     MOCLDY    29  20  69 CALM      30.45F
PINEVILLE*     CLOUDY    35  25  66 MISG      30.52F
BECKLEY        CLOUDY    29  15  56 SE16G24   30.46F WCI  17
BLUEFIELD      CLOUDY    31  16  54 S10G26    30.48S WCI  22
$$

VAZ002-007-008-TNZ017-027-036-066-071-010600
...SOUTHWEST VIRGINIA/EAST TENNESSEE...

CITY           SKY/WX    TMP DP  RH WIND       PRES   REMARKS
WISE*          PTCLDY    37  19  48 SE10G18   30.42F WCI  30
JONESVILLE*    MOCLDY    28  25  86 CALM      30.48S
ABINGDON*      MOCLDY    36  22  58 E9        30.48F WCI  29
BRISTOL        CLOUDY    35  26  69 CALM      30.48F
KNOXVILLE      PTCLDY    37  27  67 NW5       30.47F WCI  33
OAK RIDGE      CLOUDY    39  27  62 CALM      30.49S
CROSSVILLE     CLOUDY    41  26  55 S13G18    30.40F
NASHVILLE      MOCLDY    42  27  55 CALM      30.38F
$$

...KEY TO REMARKS...
VSB - VISIBILITY IN MILES
WCI - WIND CHILL INDEX
HX  - HEAT INDEX

$$



USA.gov is the U.S. government's official web portal to all federal, state and local government web resources and services.